Weather History for Toledo, OH

Change the Weather History Date:

Wednesday, June 26, 2013

  Actual Average Record
Temperature  
Mean Temperature 75 °F 72 °F  
Max Temperature 84 °F 84 °F 100 °F (1952)
Min Temperature 65 °F 61 °F 40 °F (1979)
Degree Days  
Heating Degree Days 0 0  
Month to date heating degree days 31 35  
Since 1 June heating degree days 31 35  
Since 1 July heating degree days 6165 6145  
Cooling Degree Days 10 8  
Month to date cooling degree days 137 138  
Year to date cooling degree days 231 191  
Since 1 June cooling degree days 137 138  
Growing Degree Days 24 (Base 50)    
Moisture  
Dew Point 66 °F    
Average Humidity 79    
Maximum Humidity 100    
Minimum Humidity 58    
Precipitation  
Precipitation 0.33 in 0.11 in 2.90 in (1978)
Month to date precipitation 5.84 3.14  
Year to date precipitation 20.34 16.51  
Snow  
Snow 0.00 in 0.00 in - ()
Month to date snowfall 0.0 0.0  
Since 1 June snowfall 0.0 0.0  
Since 1 July snowfall 22.4 37.6  
Snow Depth 0.00 in    
Sea Level Pressure  
Sea Level Pressure 29.83 in    
Wind  
Wind Speed 6 mph (SW)    
Max Wind Speed 18 mph    
Max Gust Speed 26 mph    
Visibility 8 miles    
Events Rain , Thunderstorm    
T = Trace of Precipitation, MM = Missing Value Source: NWS Daily Summary

Daily Weather History Graph

Daily Weather History Graph

Search for Another Location

Airport:

Trip Planner

Search our weather history database for the weather conditions in past years. The results will help you decide how hot, cold, wet, or windy it might be!

Date:

Astronomy

Jun. 26, 2013 Rise Set
Actual Time 6:02 AM EDT 9:13 PM EDT
Civil Twilight 5:28 AM EDT 9:47 PM EDT
Nautical Twilight 4:44 AM EDT 10:31 PM EDT
Astronomical Twilight 3:52 AM EDT 11:23 PM EDT
Moon 11:32 PM EDT (6/26) 9:56 AM EDT (6/26)
Length of Visible Light 16h 18m
Length of Day
15h 10m
Waning Gibbous, 85% of the Moon is Illuminated
Jun 26
Waning Gibbous
Jun 30
Last Quarter
Jul 8
New
Jul 15
First Quarter
Jul 22
Full

Hourly Weather History & Observations

Time (EDT) Temp. Heat Index Dew Point Humidity Pressure Visibility Wind Dir Wind Speed Gust Speed Precip Events Conditions
12:52 AM 66.9 °F - 64.0 °F 90% 29.91 in 6.0 mi NW 9.2 mph - 0.14 in Rain , Thunderstorm Thunderstorms and Rain
1:03 AM 66.2 °F - 64.4 °F 94% 29.91 in 6.0 mi NW 6.9 mph - 0.04 in Rain Rain
1:52 AM 66.9 °F - 64.0 °F 90% 29.86 in 10.0 mi West 8.1 mph - 0.09 in Rain Light Rain
2:52 AM 68.0 °F - 64.0 °F 87% 29.81 in 10.0 mi SW 9.2 mph - 0.01 in   Partly Cloudy
3:52 AM 66.9 °F - 63.0 °F 87% 29.81 in 10.0 mi South 3.5 mph - N/A   Clear
4:52 AM 66.0 °F - 63.0 °F 90% 29.84 in 10.0 mi SE 3.5 mph - N/A   Clear
5:52 AM 64.9 °F - 63.0 °F 93% 29.85 in 10.0 mi SSE 3.5 mph - N/A   Clear
6:29 AM 66.2 °F - 64.4 °F 94% 29.86 in 10.0 mi South 3.5 mph - N/A   Scattered Clouds
6:38 AM 66.2 °F - 64.4 °F 94% 29.85 in 10.0 mi Calm Calm - N/A   Mostly Cloudy
6:52 AM 66.9 °F - 64.0 °F 90% 29.85 in 10.0 mi Calm Calm - N/A   Overcast
7:48 AM 68.0 °F - 66.2 °F 94% 29.88 in 7.0 mi South 6.9 mph - N/A   Scattered Clouds
7:52 AM 68.0 °F - 66.0 °F 93% 29.86 in 8.0 mi South 4.6 mph - N/A   Partly Cloudy
8:52 AM 71.1 °F - 66.9 °F 87% 29.87 in 10.0 mi SW 6.9 mph - N/A   Scattered Clouds
9:28 AM 71.6 °F - 66.2 °F 83% 29.88 in 10.0 mi SW 11.5 mph - N/A   Mostly Cloudy
9:52 AM 73.0 °F - 66.9 °F 81% 29.86 in 10.0 mi West 9.2 mph - N/A   Mostly Cloudy
10:13 AM 73.4 °F - 66.2 °F 78% 29.87 in 10.0 mi West 9.2 mph - N/A   Scattered Clouds
10:52 AM 75.9 °F - 66.9 °F 74% 29.87 in 10.0 mi West 16.1 mph - N/A   Mostly Cloudy
11:31 AM 75.2 °F - 66.2 °F 73% 29.89 in 10.0 mi West 10.4 mph - N/A   Mostly Cloudy
11:52 AM 75.9 °F - 66.9 °F 74% 29.89 in 10.0 mi West 10.4 mph 20.7 mph N/A   Overcast
12:08 PM 75.2 °F - 66.2 °F 73% 29.90 in 10.0 mi West 12.7 mph - N/A   Overcast
12:52 PM 75.9 °F - 66.0 °F 71% 29.86 in 10.0 mi WNW 9.2 mph - N/A   Scattered Clouds
1:52 PM 77.0 °F - 66.0 °F 69% 29.82 in 10.0 mi Variable 4.6 mph - N/A   Scattered Clouds
2:52 PM 80.1 °F 82.1 °F 66.0 °F 62% 29.83 in 10.0 mi SW 10.4 mph - N/A   Mostly Cloudy
3:52 PM 81.0 °F 83.0 °F 66.0 °F 60% 29.81 in 10.0 mi SSW 5.8 mph - N/A   Clear
4:52 PM 82.0 °F 84.5 °F 66.9 °F 60% 29.79 in 10.0 mi ESE 3.5 mph - N/A   Clear
5:52 PM 82.9 °F 85.8 °F 68.0 °F 60% 29.76 in 10.0 mi ESE 4.6 mph - N/A   Clear
6:52 PM 82.9 °F 86.5 °F 69.1 °F 63% 29.74 in 10.0 mi ESE 8.1 mph - N/A   Clear
7:19 PM 75.2 °F - 66.2 °F 73% 29.77 in 10.0 mi South 11.5 mph 26.5 mph N/A Thunderstorm Mostly Cloudy
7:28 PM 73.4 °F - 66.2 °F 78% 29.78 in 2.0 mi South 9.2 mph 17.3 mph 0.00 in Rain Heavy Rain
7:30 PM 73.4 °F - 66.2 °F 78% 29.78 in 1.2 mi South 8.1 mph 17.3 mph 0.05 in Rain Heavy Rain
7:37 PM 71.6 °F - 66.2 °F 83% 29.78 in 1.5 mi SSW 8.1 mph - 0.12 in Rain , Thunderstorm Thunderstorms and Rain
7:40 PM 71.6 °F - 66.2 °F 83% 29.78 in 3.0 mi SSW 6.9 mph - 0.13 in Rain , Thunderstorm Thunderstorms and Rain
7:52 PM 72.0 °F - 68.0 °F 87% 29.78 in 6.0 mi West 9.2 mph - 0.14 in Rain , Thunderstorm Light Thunderstorms and Rain
8:11 PM 71.6 °F - 68.0 °F 88% 29.79 in 10.0 mi Calm Calm - 0.01 in Rain Light Rain
8:52 PM 72.0 °F - 69.1 °F 91% 29.78 in 10.0 mi NW 4.6 mph - 0.01 in   Overcast
9:52 PM 71.1 °F - 69.1 °F 93% 29.77 in 9.0 mi Calm Calm - 0.11 in Rain Light Rain
10:52 PM 70.0 °F - 68.0 °F 93% 29.75 in 8.0 mi East 4.6 mph - 0.00 in   Clear
11:52 PM 70.0 °F - 69.1 °F 97% 29.75 in 5.0 mi Calm Calm - N/A   Clear